Location: Newark
(30.0333°N, 31.2167°E)
Time: 23:31:35
(UTC+00:00)

LightSail 2 - Visible Passes

Search period start: 06 December 2019 00:00
Search period end: 16 December 2019 00:00
Orbit: 696 x 730 km, 24.0° (Epoch: 06 December)

Date Brightness Start Highest point End Pass type
(mag) Time Alt. Az. Time Alt. Az. Time Alt. Az.
06 Dec 6.1 16:30:27 10° WSW 16:35:14 39° S 16:37:21 27° SE visible
07 Dec 6.2 15:32:22 10° WSW 15:37:15 42° S 15:42:04 10° ESE visible
07 Dec 6.7 17:18:03 10° WSW 17:22:03 28° SSW 17:22:03 28° SSW visible
08 Dec 6.5 16:19:50 10° WSW 16:24:27 33° SSW 16:27:52 16° SE visible
08 Dec 8.0 18:06:27 10° WSW 18:06:51 11° SW 18:06:51 11° SW visible
09 Dec 6.4 15:21:40 10° WSW 15:26:27 37° S 15:31:11 10° ESE visible
09 Dec 7.1 17:07:47 10° WSW 17:11:32 20° SSW 17:12:45 19° S visible
10 Dec 7.0 16:09:21 10° WSW 16:13:35 25° SSW 16:17:46 10° SE visible
11 Dec 7.7 16:58:06 10° SW 17:00:35 13° SSW 17:03:04 10° S visible
12 Dec 7.6 15:59:11 10° WSW 16:02:38 18° SSW 16:06:04 10° SSE visible
14 Dec 8.0 15:49:58 10° SW 15:51:38 11° SSW 15:53:17 10° S visible
